[[{"header":{"parameterUnit":"m.s-1","parameterCategory":1,"la1":30.2991,"la2":30.254,"lo1":-89.0895,"lo2":-89.0444,"dy":0.0017,"dx":0.0017,"nx":28,"ny":28,"refTime":"2023-04-17T21:00:00:Z","depth":0,"parameterNumber":2,"parameterNumberName":"U-component_of_WINDS"},"data":[0,0,0,0,0,0,0,0,0,0,0,0,0,0,0,0,0,0,0,0,0,0,0,0,0,0,0,0,0,0,0,0,0,0,0,0,0,0,0,0,0,0,0,0,0,0,0,0,0,0,0,0,0,0,0,0,0,0,-1.4263,-1.4263,0,-1.4257,-1.4257,-1.4257,-1.4181,-1.4179,-1.4177,-1.4175,-1.4171,-1.4172,-1.4174,0,0,0,0,0,0,0,0,0,0,0,0,0,-1.4212,-1.4213,-1.4263,-1.4263,-1.4263,-1.4257,-1.4257,-1.4257,-1.4181,-1.4179,-1.4177,-1.4175,-1.417,-1.4172,-1.4174,0,0,0,0,0,0,0,0,0,0,0,0,0,-1.4223,-1.4214,-1.4263,-1.4225,-1.4221,-1.4257,-1.4257,-1.4257,-1.4182,-1.4179,-1.4176,-1.4173,-1.4169,-1.4172,-1.4174,-1.4247,0,0,-1.4182,-1.4183,0,0,0,0,0,0,0,0,-1.4222,-1.4225,-1.4231,-1.4228,-1.4224,-1.4217,-1.4237,-1.4254,-1.4183,-1.4197,-1.4175,-1.4172,-1.4188,-1.4189,-1.4194,-1.4247,-1.4247,-1.4182,-1.4184,-1.4185,-1.4185,0,0,0,0,0,0,0,-1.4222,-1.4225,-1.4261,-1.4231,-1.4227,-1.4208,-1.4207,-1.424,-1.4209,-1.4195,-1.419,-1.419,-1.4186,-1.4192,-1.4194,-1.4246,-1.4182,-1.4184,-1.4186,-1.4187,-1.4359,-1.4362,0,0,0,0,0,0,-1.4226,-1.4224,-1.4261,-1.4261,-1.4216,-1.4212,-1.421,-1.4222,-1.4208,-1.4203,-1.4193,-1.4187,-1.4189,-1.4191,-1.4193,-1.4278,-1.4185,-1.4187,-1.4188,-1.4356,-1.4359,-1.4363,0,0,0,0,0,0,-1.4225,-1.423,-1.4261,-1.4241,-1.4244,-1.4215,-1.423,-1.4223,-1.4229,-1.4206,-1.42,-1.4204,-1.4187,-1.419,-1.4234,-1.4277,-1.4188,-1.419,-1.4352,-1.4357,-1.4361,-1.4448,0,0,0,0,0,0,-1.4224,-1.423,-1.4257,-1.4242,-1.4245,-1.4302,-1.4232,-1.4225,-1.4234,-1.4226,-1.4216,-1.4211,-1.4185,-1.4231,-1.4237,-1.4278,-1.4192,-1.4348,-1.4354,-1.4359,-1.4441,-1.4455,-1.4467,0,0,0,0,0,-1.4222,-1.4282,-1.4259,-1.4264,-1.4278,-1.4305,-1.4307,-1.4275,-1.4237,-1.4265,-1.425,-1.4212,-1.4271,-1.4236,-1.4242,-1.4285,-1.4345,-1.4352,-1.4359,-1.4435,-1.4452,-1.4466,0,0,0,0,0,0,-1.4304,-1.428,-1.4254,-1.431,-1.431,-1.4292,-1.4326,-1.4293,-1.4304,-1.4297,-1.4257,-1.4255,-1.4306,-1.43,-1.4261,-1.4355,-1.4301,-1.431,-1.4357,-1.4373,-1.4386,-1.4387,-1.4194,0,0,0,0,0,-1.4328,-1.4351,-1.4329,-1.4381,-1.4383,-1.4354,-1.4365,-1.434,-1.4339,-1.4338,-1.4326,-1.4327,-1.4346,-1.4359,-1.4375,-1.4439,-1.4436,-1.4472,-1.4485,-1.4495,-1.4504,-1.4538,-1.4554,-1.4385,-1.4385,-1.4385,0,0,-1.4379,-1.4369,-1.4386,-1.4397,-1.4394,-1.442,-1.4355,-1.4384,-1.4403,-1.4343,-1.4384,-1.4376,-1.4374,-1.4429,-1.4452,-1.4425,-1.4549,-1.4504,-1.4513,-1.4515,-1.4547,-1.4563,-1.4577,-1.439,-1.4389,-1.4388,0,0,-1.4485,-1.4479,-1.4522,-1.4521,-1.4517,-1.4497,-1.4508,-1.4494,-1.4486,-1.4527,-1.4482,-1.4504,-1.4537,-1.4537,-1.4542,-1.4648,-1.4614,-1.4654,-1.4721,-1.4755,-1.4768,-1.478,-1.4819,-1.4833,-1.4662,-1.4662,-1.4662,0,-1.4549,-1.4585,-1.4549,-1.4581,-1.4588,-1.4534,-1.4577,-1.4578,-1.458,-1.4586,-1.4554,-1.4595,-1.4589,-1.4644,-1.467,-1.4675,-1.4686,-1.4656,-1.4769,-1.4781,-1.4791,-1.4827,-1.4842,-1.4667,-1.4667,-1.4666,-1.4666,0,-1.4665,-1.4691,-1.4726,-1.4728,-1.4739,-1.4777,-1.4747,-1.4761,-1.4736,-1.472,-1.4762,-1.4754,-1.4767,-1.4778,-1.4753,-1.4829,-1.4813,-1.4776,-1.4722,-1.4813,-1.4846,-1.486,-1.4674,-1.4673,-1.4671,-1.467,0,0,-1.4823,-1.4804,-1.4818,-1.4819,-1.481,-1.4829,-1.4865,-1.4877,-1.4891,-1.4894,-1.4924,-1.4953,-1.4919,-1.4924,-1.4899,-1.4928,-1.5014,-1.4888,-1.4887,-1.4913,-1.5098,-1.5126,-1.5143,-1.499,-1.4993,-1.4995,-1.5098,0,-1.4926,-1.4985,-1.4953,-1.5017,-1.5041,-1.499,-1.5021,-1.5019,-1.5005,-1.5023,-1.5008,-1.5029,-1.4983,-1.4985,-1.5012,-1.4998,-1.505,-1.4989,-1.5018,-1.502,-1.5021,-1.516,-1.519,-1.5288,-1.5111,-1.5113,-1.5115,0,-1.5054,-1.5062,-1.5128,-1.5115,-1.5124,-1.5153,-1.5161,-1.5179,-1.5177,-1.5164,-1.517,-1.5138,-1.5172,-1.5118,-1.5165,-1.5124,-1.5134,-1.5128,-1.5131,-1.5134,-1.5073,-1.5167,-1.5318,-1.5334,-1.5135,-1.5133,-1.5132,0,-1.5164,-1.5191,-1.5234,-1.5236,-1.5222,-1.5243,-1.5238,-1.5232,-1.5242,-1.525,-1.5256,-1.5268,-1.5275,-1.5285,-1.5257,-1.522,-1.5308,-1.5251,-1.53,-1.5301,-1.5322,-1.5321,-1.5478,-1.5327,-1.5326,-1.5326,-1.5326,0,-1.5283,-1.5325,-1.5283,-1.531,-1.5357,-1.5319,-1.5367,-1.5356,-1.5352,-1.5376,-1.5332,-1.5356,-1.5317,-1.5337,-1.5315,-1.5358,-1.5361,-1.5353,-1.5346,-1.5357,-1.5358,-1.5364,-1.5356,-1.533,-1.5329,-1.5328,-1.5328,0,-1.5414,-1.5387,-1.5431,-1.5413,-1.541,-1.5445,-1.543,-1.5455,-1.5437,-1.5469,-1.5474,-1.5447,-1.5468,-1.5441,-1.546,-1.5445,-1.5504,-1.5487,-1.5505,-1.55,-1.5551,-1.5547,-1.5718,-1.5738,-1.5573,-1.5575,-1.5576,0,-1.5492,-1.5523,-1.5509,-1.5522,-1.5519,-1.5541,-1.555,-1.5514,-1.5526,-1.5525,-1.555,-1.5567,-1.5579,-1.5616,-1.5599,-1.5613,-1.5596,-1.5655,-1.5598,-1.5608,-1.5598,-1.5597,-1.56,-1.5667,-1.5669,-1.5671,-1.5672,0,-1.5633,-1.5618,-1.5633,-1.5644,-1.5656,-1.5663,-1.5666,-1.5679,-1.5642,-1.5658,-1.5678,-1.5688,-1.5707,-1.5725,-1.5734,-1.5729,-1.5696,-1.569,-1.5702,-1.5714,-1.5723,-1.572,-1.5538,-1.5687,-1.5685,-1.5684,-1.5683,-1.5683,-1.574,-1.5766,-1.5761,-1.5779,-1.5777,-1.5782,-1.5804,-1.5789,-1.5805,-1.5818,-1.5796,-1.5822,-1.5819,-1.5828,-1.5827,-1.5848,-1.5822,-1.584,-1.5844,-1.585,-1.5858,-1.5719,-1.5849,-1.5849,-1.5848,-1.5848,-1.5848,0,-1.588,-1.5874,-1.5891,-1.5897,-1.5911,-1.5877,-1.5879,-1.5893,-1.5917,-1.5916,-1.5929,-1.5953,-1.5971,-1.5954,-1.5968,-1.5988,-1.5973,-1.5993,-1.5992,-1.5992,-1.5879,-1.5867,-1.6005,-1.6005,-1.6005,-1.6005,-1.6005,-1.6005,-1.5955,-1.5997,-1.5982,-1.6023,-1.6016,-1.6041,-1.6046,-1.6049,-1.6049,-1.6078,-1.6091,-1.608,-1.6074,-1.6087,-1.6101,-1.6096,-1.6104,-1.613,-1.6119,-1.6015,-1.5999,-1.5985,-1.5974,-1.6132,-1.6132,-1.623,-1.6231,-1.6232]},{"header":{"parameterUnit":"m.s-1","parameterCategory":1,"la1":30.2991,"la2":30.254,"lo1":-89.0895,"lo2":-89.0444,"dy":0.0017,"dx":0.0017,"nx":28,"ny":28,"refTime":"2023-04-17T21:00:00:Z","depth":0,"parameterNumber":3,"parameterNumberName":"V-component_of_WINDS"},"data":[0,0,0,0,0,0,0,0,0,0,0,0,0,0,0,0,0,0,0,0,0,0,0,0,0,0,0,0,0,0,0,0,0,0,0,0,0,0,0,0,0,0,0,0,0,0,0,0,0,0,0,0,0,0,0,0,0,0,-1.8116,-1.8116,0,-1.8203,-1.8204,-1.8205,-1.8222,-1.8221,-1.822,-1.822,-1.8309,-1.8312,-1.8315,0,0,0,0,0,0,0,0,0,0,0,0,0,-1.7961,-1.7964,-1.8115,-1.8117,-1.8118,-1.8203,-1.8204,-1.8206,-1.8222,-1.8221,-1.822,-1.8219,-1.8308,-1.8311,-1.8315,0,0,0,0,0,0,0,0,0,0,0,0,0,-1.8037,-1.7965,-1.8115,-1.8136,-1.8139,-1.8203,-1.8204,-1.8206,-1.8222,-1.8221,-1.822,-1.8219,-1.8307,-1.8311,-1.8316,-1.8365,0,0,-1.8329,-1.8331,0,0,0,0,0,0,0,0,-1.8032,-1.8042,-1.8132,-1.8135,-1.8138,-1.8201,-1.8183,-1.8259,-1.8222,-1.8191,-1.822,-1.8219,-1.8274,-1.8281,-1.83,-1.8369,-1.8373,-1.833,-1.8333,-1.8335,-1.8336,0,0,0,0,0,0,0,-1.8027,-1.8039,-1.815,-1.8133,-1.8137,-1.8141,-1.815,-1.8197,-1.8237,-1.8193,-1.8195,-1.8205,-1.8275,-1.8295,-1.8302,-1.8374,-1.833,-1.8334,-1.8337,-1.8338,-1.8488,-1.8489,0,0,0,0,0,0,-1.8018,-1.8034,-1.8147,-1.8153,-1.8082,-1.8145,-1.8155,-1.8182,-1.8236,-1.8244,-1.8206,-1.8205,-1.8288,-1.8296,-1.8305,-1.8366,-1.8334,-1.8339,-1.8341,-1.8486,-1.8488,-1.8489,0,0,0,0,0,0,-1.8015,-1.8028,-1.8144,-1.8094,-1.8109,-1.8148,-1.8178,-1.8184,-1.8204,-1.8246,-1.8253,-1.8219,-1.8287,-1.8299,-1.835,-1.8369,-1.8341,-1.8345,-1.8485,-1.8487,-1.8489,-1.8488,0,0,0,0,0,0,-1.801,-1.8027,-1.8046,-1.8094,-1.8112,-1.8187,-1.8179,-1.8186,-1.8212,-1.8212,-1.826,-1.8267,-1.8287,-1.8343,-1.8354,-1.8375,-1.8348,-1.8483,-1.8486,-1.8488,-1.8486,-1.849,-1.8492,0,0,0,0,0,-1.8005,-1.8042,-1.8047,-1.8061,-1.8136,-1.8188,-1.8198,-1.8221,-1.8213,-1.8233,-1.826,-1.8266,-1.8365,-1.8348,-1.8361,-1.8383,-1.8482,-1.8485,-1.8488,-1.8485,-1.8489,-1.8492,0,0,0,0,0,0,-1.7995,-1.8049,-1.8055,-1.8109,-1.8144,-1.8191,-1.8216,-1.8225,-1.8262,-1.8261,-1.8288,-1.8298,-1.8348,-1.8371,-1.835,-1.8433,-1.8423,-1.8429,-1.8417,-1.8421,-1.8424,-1.8417,-1.8352,0,0,0,0,0,-1.7999,-1.8037,-1.8082,-1.8126,-1.8143,-1.8177,-1.82,-1.8215,-1.8252,-1.8267,-1.8298,-1.8333,-1.8373,-1.8398,-1.8437,-1.849,-1.85,-1.8512,-1.8515,-1.8517,-1.8521,-1.8551,-1.8556,-1.8498,-1.8498,-1.8498,0,0,-1.8008,-1.8042,-1.8065,-1.8125,-1.8154,-1.8192,-1.8189,-1.823,-1.8259,-1.8273,-1.8323,-1.8347,-1.8389,-1.8441,-1.8465,-1.8461,-1.8539,-1.852,-1.8522,-1.8525,-1.8554,-1.856,-1.8564,-1.85,-1.85,-1.85,0,0,-1.8044,-1.8074,-1.8114,-1.8143,-1.8186,-1.8209,-1.8218,-1.8264,-1.828,-1.8331,-1.8343,-1.8377,-1.8445,-1.8474,-1.8497,-1.8545,-1.8551,-1.8556,-1.8571,-1.86,-1.8605,-1.8609,-1.8625,-1.8631,-1.8561,-1.8561,-1.8561,0,-1.805,-1.8109,-1.8133,-1.8173,-1.8199,-1.8214,-1.8254,-1.8281,-1.8335,-1.8352,-1.8347,-1.8432,-1.8461,-1.852,-1.8532,-1.8551,-1.8562,-1.8551,-1.8602,-1.8606,-1.8611,-1.8627,-1.8633,-1.8561,-1.8561,-1.8561,-1.8561,0,-1.8113,-1.8154,-1.818,-1.8232,-1.8261,-1.8301,-1.8331,-1.8357,-1.8369,-1.8392,-1.8443,-1.8479,-1.8525,-1.854,-1.8552,-1.8601,-1.8597,-1.8597,-1.8587,-1.8616,-1.8632,-1.8638,-1.8561,-1.8561,-1.8561,-1.8561,0,0,-1.8145,-1.821,-1.822,-1.8243,-1.8293,-1.8324,-1.8365,-1.841,-1.8432,-1.8469,-1.8503,-1.856,-1.856,-1.8587,-1.8602,-1.8627,-1.8662,-1.8624,-1.8625,-1.863,-1.8718,-1.8717,-1.8724,-1.8667,-1.8668,-1.8669,-1.8714,0,-1.8187,-1.826,-1.8283,-1.8344,-1.8381,-1.8396,-1.8432,-1.8466,-1.8488,-1.8523,-1.8547,-1.8587,-1.8584,-1.86,-1.8626,-1.8652,-1.868,-1.865,-1.8699,-1.87,-1.8688,-1.8732,-1.8732,-1.8773,-1.872,-1.8721,-1.8722,0,-1.8245,-1.8283,-1.8348,-1.8393,-1.8409,-1.844,-1.8484,-1.8517,-1.8556,-1.857,-1.86,-1.8614,-1.8656,-1.8644,-1.8703,-1.8682,-1.8704,-1.872,-1.8722,-1.8727,-1.8713,-1.8738,-1.8786,-1.8792,-1.8732,-1.8731,-1.8731,0,-1.8262,-1.8329,-1.8376,-1.8396,-1.845,-1.8471,-1.8494,-1.8532,-1.8558,-1.8596,-1.8612,-1.8655,-1.8677,-1.871,-1.8734,-1.8723,-1.8791,-1.8781,-1.8804,-1.8803,-1.8817,-1.8816,-1.8869,-1.8831,-1.8831,-1.8831,-1.8831,0,-1.8306,-1.8345,-1.8385,-1.8414,-1.8457,-1.8483,-1.8526,-1.855,-1.8583,-1.8617,-1.8633,-1.8664,-1.8695,-1.873,-1.875,-1.8795,-1.8806,-1.8818,-1.8823,-1.8817,-1.8815,-1.8831,-1.8829,-1.8833,-1.8832,-1.8832,-1.8832,0,-1.8332,-1.836,-1.8412,-1.8459,-1.8471,-1.8501,-1.8541,-1.8569,-1.8592,-1.8635,-1.8646,-1.8682,-1.8725,-1.8752,-1.8807,-1.882,-1.8869,-1.8873,-1.8856,-1.8858,-1.8879,-1.8877,-1.8944,-1.8954,-1.891,-1.8911,-1.8911,0,-1.8357,-1.8388,-1.8437,-1.8461,-1.8484,-1.8523,-1.8549,-1.8575,-1.8602,-1.8649,-1.8672,-1.8715,-1.8751,-1.8818,-1.8849,-1.889,-1.8895,-1.8916,-1.8902,-1.8894,-1.8895,-1.8893,-1.8896,-1.8918,-1.8919,-1.8919,-1.8919,0,-1.84,-1.8413,-1.845,-1.8493,-1.8523,-1.8558,-1.8593,-1.8611,-1.8644,-1.8673,-1.8717,-1.8745,-1.88,-1.8843,-1.8887,-1.8911,-1.892,-1.8923,-1.8931,-1.8925,-1.8913,-1.8919,-1.8862,-1.8922,-1.8921,-1.8921,-1.8921,-1.8921,-1.8427,-1.8454,-1.8493,-1.8534,-1.8563,-1.8595,-1.8624,-1.8651,-1.8688,-1.8735,-1.8748,-1.8794,-1.8832,-1.8892,-1.8917,-1.8953,-1.895,-1.8961,-1.8964,-1.8966,-1.8966,-1.8908,-1.8961,-1.8961,-1.8961,-1.8961,-1.8961,0,-1.847,-1.8496,-1.8534,-1.8582,-1.8614,-1.862,-1.8659,-1.8685,-1.8725,-1.876,-1.8795,-1.8845,-1.8887,-1.8921,-1.8964,-1.8986,-1.8991,-1.8996,-1.8995,-1.9,-1.8966,-1.8955,-1.8991,-1.8991,-1.8991,-1.8991,-1.8991,-1.8991,-1.8497,-1.8543,-1.856,-1.8622,-1.8647,-1.8692,-1.8713,-1.8743,-1.8771,-1.8826,-1.8861,-1.8883,-1.8917,-1.8963,-1.9001,-1.901,-1.9025,-1.9029,-1.9039,-1.9006,-1.9002,-1.8999,-1.8989,-1.9032,-1.9032,-1.907,-1.907,-1.907]}]]